Location: Worth Mountain WMA
(34.9569°N, 81.4819°W)
Time: 01:12:09
(UTC-05:00)

Amateur Radio Satellites - All Passes

Search period start: 22 February 2017 00:42
Search period end: 23 February 2017 00:42
Location: Worth Mountain WMA, 34.9569°N, 81.4819°W

Satellite Date Start Highest point End Downlink Frequencies (MHz)
Time Altitude Azimuth
SO-50 22 Feb 01:00:24 01:01:51 11° 315° (NW) 01:03:17 436.795
SRMSAT 22 Feb 01:02:12 01:04:53 13° 167° (SSE) 01:07:34 437.500
RS-15 22 Feb 01:05:26 01:14:30 22° 31° (NNE) 01:23:20 29.354- 29.394
PCSat 22 Feb 01:07:21 01:09:11 12° 46° (NE) 01:11:01 145.827
BUGSAT 1 22 Feb 01:07:33 01:11:47 74° 283° (WNW) 01:16:00 437.445
DUCHIFAT 1 22 Feb 01:31:20 01:33:29 14° 293° (WNW) 01:35:39 145.980
DX 1 22 Feb 01:41:49 01:43:47 13° 267° (W) 01:45:44 434.975-435.025
JUGNU 22 Feb 01:57:57 02:01:32 16° 187° (S) 02:05:08 437.505
UKube-1 22 Feb 02:03:24 02:03:58 10° 268° (W) 02:04:32 .
ITUPSAT 1 22 Feb 02:04:17 02:08:49 43° 72° (ENE) 02:13:22 437.325
Oscar 19 22 Feb 02:07:43 02:12:50 75° 285° (WNW) 02:17:56 437.125/150
BEESAT 22 Feb 02:13:25 02:18:05 56° 74° (ENE) 02:22:47 436.000
Gurwin Techsat 1B 22 Feb 02:20:54 02:26:15 78° 103° (ESE) 02:31:34 435.225
ITAMSAT 1 22 Feb 02:34:17 02:37:30 16° 93° (E) 02:40:43 435.822/435.867
PCSat 22 Feb 02:47:56 02:53:24 83° 65° (ENE) 02:58:49 145.827
SRMSAT 22 Feb 02:49:21 02:53:19 18° 177° (S) 02:57:18 437.500
AO-7 22 Feb 03:02:46 03:09:44 29° 97° (E) 03:16:36 .
MOZHAYETS 4 22 Feb 03:08:57 03:13:34 74° 77° (ENE) 03:18:13
RS-15 22 Feb 03:17:30 03:29:49 70° 58° (ENE) 03:41:30 29.354- 29.394
ITUPSAT 1 22 Feb 03:43:48 03:46:47 16° 266° (W) 03:49:48 437.325
BEESAT 22 Feb 03:54:11 03:56:08 12° 268° (W) 03:58:07 436.000
CUBESAT XI-V 22 Feb 03:58:18 04:02:34 36° 72° (ENE) 04:06:49 437.345
Gurwin Techsat 1B 22 Feb 04:03:38 04:05:28 12° 298° (WNW) 04:07:18 435.225
KKS-1 22 Feb 04:08:12 04:12:36 85° 76° (ENE) 04:17:03 437.445
ITAMSAT 1 22 Feb 04:12:08 04:17:11 50° 288° (WNW) 04:22:13 435.822/435.867
PCSat 22 Feb 04:35:42 04:35:59 10° 258° (WSW) 04:36:16 145.827
SRMSAT 22 Feb 04:38:10 04:41:47 16° 188° (S) 04:45:24 437.500
STARS 22 Feb 04:53:07 04:57:26 68° 258° (WSW) 05:01:48 437.465
AO-7 22 Feb 04:54:42 05:02:44 55° 293° (WNW) 05:10:42 .
AO-85 22 Feb 04:58:53 05:03:30 60° 116° (ESE) 05:07:48 145.980
M-CUBED/EXP-1 PRIME 22 Feb 05:02:57 05:06:14 46° 255° (WSW) 05:09:24 437.505
RS-15 22 Feb 05:31:24 05:41:10 30° 257° (WSW) 05:50:39 29.354- 29.394
LilacSat-2 22 Feb 05:31:44 05:33:05 12° 92° (E) 05:34:25 437.200
CUBESAT XI-V 22 Feb 05:36:44 05:39:59 19° 266° (W) 05:43:15 437.345
DOVE 4 22 Feb 05:44:05 05:47:50 23° 96° (E) 05:51:44 437.250
NUDT-PHONESAT 22 Feb 05:44:13 05:45:55 13° 93° (E) 05:47:38 437.300
STRAND 1 22 Feb 06:06:59 06:10:56 23° 67° (ENE) 06:14:54 437.568
CUTE-I 22 Feb 06:32:03 06:37:22 59° 101° (E) 06:42:39 437.470
XW-2F 22 Feb 06:35:08 06:38:57 80° 100° (E) 06:42:44 145.980 - 146.000
KAITUO 1B 22 Feb 06:36:44 06:40:29 68° 101° (E) 06:44:12 145.475/437.950
XW-2D 22 Feb 06:37:26 06:41:17 89° 286° (WNW) 06:45:04 145.860 - 145.880
AO-85 22 Feb 06:41:51 06:44:10 14° 311° (NW) 06:46:25 145.980
XW-2B 22 Feb 06:42:24 06:46:14 79° 283° (WNW) 06:50:01 145.730 - 145.750
BEESAT 3 22 Feb 06:46:20 06:49:57 39° 114° (ESE) 06:53:39 437.485
XW-2C 22 Feb 06:50:55 06:54:42 59° 284° (WNW) 06:58:26 145.795 - 145.815
LilacSat-2 22 Feb 07:03:55 07:07:30 37° 286° (WNW) 07:11:03 437.200
BEESAT 2 22 Feb 07:16:25 07:19:57 33° 113° (ESE) 07:23:34 435.950
NUDT-PHONESAT 22 Feb 07:16:33 07:19:57 32° 287° (WNW) 07:23:19 437.300
SEEDS 22 Feb 07:18:50 07:21:15 15° 93° (E) 07:23:38 437.485
DOVE 4 22 Feb 07:21:23 07:25:28 31° 288° (WNW) 07:29:45 437.250
CUBEBUG 2 22 Feb 07:29:38 07:32:27 16° 92° (E) 07:35:15 437.445
HO-68 22 Feb 07:32:10 07:38:55 43° 100° (E) 07:45:36 435.675
STRAND 1 22 Feb 07:45:08 07:49:50 36° 262° (W) 07:54:34 437.568
CUTE 1.7 + AOD 2 22 Feb 07:48:36 07:52:46 56° 100° (E) 07:56:53 437.475
SO-50 22 Feb 07:50:55 07:54:54 30° 54° (NE) 07:58:51 436.795
XW-2A 22 Feb 07:54:16 07:57:41 62° 284° (WNW) 08:01:06 145.665 - 145.685
Tancredo 1 22 Feb 07:57:22 07:59:18 15° 128° (SE) 08:01:13 437.200
Oscar 11 22 Feb 08:11:59 08:12:50 10° 91° (E) 08:13:39 .
CUTE-I 22 Feb 08:13:43 08:16:52 16° 296° (WNW) 08:20:01 437.470
UWE-3 22 Feb 08:13:51 08:17:55 29° 96° (E) 08:21:55 435.000/436.395/437.385
BEESAT 3 22 Feb 08:25:23 08:27:44 15° 310° (NW) 08:30:07 437.485
PRISM 22 Feb 08:26:54 08:30:11 24° 70° (ENE) 08:33:27 437.425
ZACube-1 22 Feb 08:43:08 08:47:21 35° 98° (E) 08:51:27 437.345
O/OREOS (USA 219) 22 Feb 08:45:52 08:49:09 19° 61° (ENE) 08:52:26 437.305
AAUSAT CUBESAT 2 22 Feb 08:53:06 08:57:12 77° 283° (WNW) 09:01:17 437.432
SEEDS 22 Feb 08:53:13 08:57:01 35° 287° (WNW) 09:00:47 437.485
BEESAT 2 22 Feb 08:55:05 08:57:48 18° 309° (NW) 09:00:34 435.950
ISS 22 Feb 08:57:47 09:01:04 76° 134° (SE) 09:04:21 437.550
CUBEBUG 2 22 Feb 09:04:41 09:09:13 45° 287° (WNW) 09:13:43 437.445
UNISAT 6 22 Feb 09:05:43 09:09:25 26° 70° (ENE) 09:13:11 437.425
TIGRISAT 22 Feb 09:07:14 09:10:52 25° 69° (ENE) 09:14:34 435.000
HO-68 22 Feb 09:20:14 09:26:22 32° 295° (WNW) 09:32:31 435.675
YUBILEINY 22 Feb 09:20:21 09:24:50 15° 78° (ENE) 09:29:18 435.215
DELFI C3 22 Feb 09:23:42 09:26:47 22° 96° (E) 09:29:50 145.870
CUTE 1.7 + AOD 2 22 Feb 09:27:26 09:28:02 10° 295° (WNW) 09:28:39 437.475
SO-50 22 Feb 09:31:38 09:35:11 23° 249° (WSW) 09:38:42 436.795
Tancredo 1 22 Feb 09:32:14 09:35:20 40° 322° (NW) 09:38:26 437.200
AO-73 22 Feb 09:33:33 09:38:04 64° 285° (WNW) 09:42:29 145.935
Oscar 11 22 Feb 09:45:00 09:49:14 53° 285° (WNW) 09:53:24 .
UWE-3 22 Feb 09:50:28 09:54:10 23° 291° (WNW) 09:57:49 435.000/436.395/437.385
FO-29 22 Feb 10:00:53 10:07:29 54° 71° (ENE) 10:14:49 435.910
PRISM 22 Feb 10:02:11 10:05:22 22° 264° (W) 10:08:32 437.425
ZACube-1 22 Feb 10:20:08 10:23:18 19° 292° (WNW) 10:26:25 437.345
O/OREOS (USA 219) 22 Feb 10:24:27 10:28:38 35° 256° (WSW) 10:32:47 437.305
ISS 22 Feb 10:36:07 10:37:52 14° 332° (NNW) 10:39:38 437.550
UNISAT 6 22 Feb 10:42:27 10:46:01 24° 265° (W) 10:49:41 437.425
DUCHIFAT 1 22 Feb 10:43:17 10:46:25 21° 69° (ENE) 10:49:34 145.980
TIGRISAT 22 Feb 10:43:48 10:47:26 25° 265° (W) 10:51:09 435.000
EO-79 22 Feb 10:49:18 10:52:57 29° 71° (ENE) 10:56:37 145.935-145.965
DELFI C3 22 Feb 10:58:27 11:01:27 21° 289° (WNW) 11:04:26 145.870
POLYITAN 1 22 Feb 11:05:13 11:09:16 46° 74° (ENE) 11:13:20 437.675
QB50P2 22 Feb 11:07:57 11:12:03 54° 75° (ENE) 11:16:13 145.880/145.840
NANOSAT C BR1 22 Feb 11:08:08 11:12:08 45° 74° (ENE) 11:16:11 145.865
ESTCUBE 1 22 Feb 11:11:06 11:14:49 25° 96° (E) 11:18:30 437.505/2401.250
YUBILEINY 22 Feb 11:11:28 11:20:19 89° 276° (W) 11:29:11 435.215
AIST 2D 22 Feb 11:29:15 11:32:36 42° 261° (W) 11:36:01 435.315
Oscar 19 22 Feb 11:45:39 11:47:35 12° 63° (ENE) 11:49:31 437.125/150
FO-29 22 Feb 11:47:24 11:52:50 25° 269° (W) 11:58:46 435.910
VELOX 1 22 Feb 11:51:53 11:55:21 22° 96° (E) 11:58:49 145.980
BUGSAT 1 22 Feb 11:53:49 11:57:40 45° 74° (ENE) 12:01:34 437.445
50 SAT 22 Feb 11:55:37 11:57:19 13° 94° (E) 11:59:01 437.505
UKube-1 22 Feb 12:15:59 12:17:25 11° 93° (E) 12:18:51 .
DUCHIFAT 1 22 Feb 12:18:22 12:21:54 26° 263° (W) 12:25:28 145.980
SPROUT 22 Feb 12:25:33 12:29:41 45° 99° (E) 12:33:48 437.525
EO-79 22 Feb 12:25:45 12:28:42 18° 266° (W) 12:31:40 145.935-145.965
POLYITAN 1 22 Feb 12:43:45 12:45:15 12° 268° (W) 12:46:46 437.675
NANOSAT C BR1 22 Feb 12:46:32 12:48:03 12° 268° (W) 12:49:36 145.865
ESTCUBE 1 22 Feb 12:47:52 12:51:30 24° 290° (WNW) 12:55:06 437.505/2401.250
YUBILEINY 22 Feb 13:13:25 13:18:17 16° 294° (WNW) 13:23:11 435.215
Oscar 19 22 Feb 13:21:06 13:26:15 72° 258° (WSW) 13:31:24 437.125/150
50 SAT 22 Feb 13:27:31 13:30:27 26° 288° (WNW) 13:33:22 437.505
VELOX 1 22 Feb 13:28:02 13:31:44 27° 290° (WNW) 13:35:26 145.980
DX 1 22 Feb 13:30:25 13:34:42 59° 285° (WNW) 13:38:58 434.975-435.025
BUGSAT 1 22 Feb 13:32:17 13:33:15 11° 268° (W) 13:34:13 437.445
AO-85 22 Feb 13:34:12 13:36:54 18° 51° (NE) 13:39:37 145.980
Gurwin Techsat 1B 22 Feb 13:38:35 13:43:54 89° 75° (ENE) 13:49:15 435.225
ITAMSAT 1 22 Feb 13:49:08 13:52:43 19° 65° (ENE) 13:56:18 435.822/435.867
UKube-1 22 Feb 13:49:30 13:53:40 49° 286° (WNW) 13:57:50 .
AO-7 22 Feb 13:58:24 14:05:27 32° 61° (ENE) 14:12:29 .
SPROUT 22 Feb 14:03:04 14:05:10 13° 293° (WNW) 14:07:17 437.525
ITUPSAT 1 22 Feb 14:09:32 14:12:07 14° 93° (E) 14:14:41 437.325
BEESAT 22 Feb 14:17:48 14:21:06 18° 94° (E) 14:24:24 436.000
MOZHAYETS 4 22 Feb 15:08:03 15:11:37 22° 95° (E) 15:15:08
BEESAT 3 22 Feb 15:08:32 15:09:11 10° 46° (NE) 15:09:50 437.485
AO-85 22 Feb 15:13:49 15:17:19 31° 246° (WSW) 15:20:54 145.980
ITAMSAT 1 22 Feb 15:26:49 15:31:47 45° 260° (W) 15:36:47 435.822/435.867
ISS 22 Feb 15:28:38 15:31:15 21° 33° (NNE) 15:33:51 437.550
PCSat 22 Feb 15:45:12 15:48:32 17° 104° (ESE) 15:51:54 145.827
ITUPSAT 1 22 Feb 15:45:32 15:50:10 49° 287° (WNW) 15:54:45 437.325
AO-7 22 Feb 15:49:39 15:57:46 54° 257° (WSW) 16:05:55 .
BEESAT 22 Feb 15:54:33 15:58:58 38° 289° (WNW) 16:03:22 436.000
CUBESAT XI-V 22 Feb 16:00:30 16:01:43 11° 91° (E) 16:02:56 437.345
Tancredo 1 22 Feb 16:01:50 16:04:56 44° 39° (NE) 16:08:01 437.200
KKS-1 22 Feb 16:03:06 16:06:29 21° 96° (E) 16:09:50 437.445
BEESAT 3 22 Feb 16:43:14 16:47:15 71° 243° (WSW) 16:51:12 437.485
MOZHAYETS 4 22 Feb 16:44:44 16:48:44 30° 289° (WNW) 16:52:41
M-CUBED/EXP-1 PRIME 22 Feb 16:45:20 16:46:47 12° 100° (E) 16:48:16 437.505
STARS 22 Feb 16:46:00 16:49:47 27° 97° (E) 16:53:33 437.465
DOVE 4 22 Feb 16:48:17 16:50:21 14° 67° (ENE) 16:52:25 437.250
ISS 22 Feb 17:04:46 17:07:45 33° 228° (SW) 17:10:42 437.550
XW-2F 22 Feb 17:13:16 17:16:17 23° 71° (ENE) 17:19:20 145.980 - 146.000
BEESAT 2 22 Feb 17:14:13 17:18:16 82° 241° (WSW) 17:22:17 435.950
KAITUO 1B 22 Feb 17:14:15 17:17:00 19° 70° (ENE) 17:19:46 145.475/437.950
XW-2D 22 Feb 17:15:42 17:18:54 26° 72° (ENE) 17:22:08 145.860 - 145.880
XW-2B 22 Feb 17:20:31 17:23:51 29° 72° (ENE) 17:27:11 145.730 - 145.750
PCSat 22 Feb 17:26:08 17:31:25 54° 299° (WNW) 17:36:45 145.827
XW-2C 22 Feb 17:28:45 17:32:18 37° 74° (ENE) 17:35:53 145.795 - 145.815
CUBESAT XI-V 22 Feb 17:34:53 17:39:24 57° 285° (WNW) 17:43:53 437.345
RS-15 22 Feb 17:35:05 17:46:36 63° 111° (ESE) 17:58:37 29.354- 29.394
KKS-1 22 Feb 17:39:07 17:43:00 30° 289° (WNW) 17:46:53 437.445
Tancredo 1 22 Feb 17:39:22 17:40:54 13° 233° (SW) 17:42:26 437.200
LilacSat-2 22 Feb 17:41:51 17:45:39 59° 76° (ENE) 17:49:29 437.200
CUTE-I 22 Feb 17:50:30 17:55:46 69° 74° (ENE) 18:01:06 437.470
NUDT-PHONESAT 22 Feb 17:52:03 17:55:44 62° 76° (ENE) 17:59:28 437.300
HO-68 22 Feb 17:58:27 18:03:49 23° 62° (ENE) 18:09:11 435.675
M-CUBED/EXP-1 PRIME 22 Feb 18:17:45 18:21:17 41° 290° (WNW) 18:25:05 437.505
STARS 22 Feb 18:22:30 18:25:57 23° 291° (WNW) 18:29:24 437.465
XW-2A 22 Feb 18:22:58 18:25:37 22° 72° (ENE) 18:28:19 145.665 - 145.685
DOVE 4 22 Feb 18:23:48 18:27:42 38° 261° (W) 18:31:35 437.250
CUTE 1.7 + AOD 2 22 Feb 18:38:09 18:41:43 26° 71° (ENE) 18:45:18 437.475
XW-2F 22 Feb 18:47:31 18:50:21 19° 265° (W) 18:53:11 145.980 - 146.000
KAITUO 1B 22 Feb 18:47:50 18:50:52 23° 264° (W) 18:53:55 145.475/437.950
XW-2D 22 Feb 18:50:30 18:53:04 17° 266° (W) 18:55:39 145.860 - 145.880
XW-2B 22 Feb 18:55:44 18:58:03 15° 266° (W) 19:00:23 145.730 - 145.750
XW-2C 22 Feb 19:05:11 19:06:39 12° 268° (W) 19:08:06 145.795 - 145.815
UWE-3 22 Feb 19:08:32 19:11:12 16° 67° (ENE) 19:13:55 435.000/436.395/437.385
CUTE-I 22 Feb 19:34:22 19:36:15 12° 269° (W) 19:38:09 437.470
ZACube-1 22 Feb 19:36:14 19:39:20 19° 68° (ENE) 19:42:29 437.345
AAUSAT CUBESAT 2 22 Feb 19:39:38 19:43:34 42° 74° (ENE) 19:47:30 437.432
SEEDS 22 Feb 19:40:40 19:44:55 83° 258° (WSW) 19:49:11 437.485
HO-68 22 Feb 19:43:53 19:50:58 61° 258° (WSW) 19:58:04 435.675
RS-15 22 Feb 19:48:44 19:59:42 40° 314° (NW) 20:11:04 29.354- 29.394
XW-2A 22 Feb 19:56:22 19:58:21 15° 266° (W) 20:00:21 145.665 - 145.685
STRAND 1 22 Feb 19:58:25 20:03:35 82° 285° (WNW) 20:08:44 437.568
CUBEBUG 2 22 Feb 19:58:52 20:03:12 81° 259° (W) 20:07:43 437.445
CUTE 1.7 + AOD 2 22 Feb 20:14:11 20:17:28 21° 265° (W) 20:20:46 437.475
AO-73 22 Feb 20:25:05 20:29:25 63° 76° (ENE) 20:33:53 145.935
Oscar 11 22 Feb 20:35:51 20:40:11 74° 75° (ENE) 20:44:32 .
UWE-3 22 Feb 20:43:09 20:47:15 40° 262° (W) 20:51:30 435.000/436.395/437.385
ZACube-1 22 Feb 21:11:22 21:15:20 33° 263° (W) 21:19:23 437.345
AAUSAT CUBESAT 2 22 Feb 21:17:25 21:19:11 12° 268° (W) 21:20:57 437.432
YUBILEINY 22 Feb 21:26:21 21:34:22 39° 76° (ENE) 21:42:16 435.215
DELFI C3 22 Feb 21:39:27 21:43:23 61° 259° (W) 21:47:19 145.870
PRISM 22 Feb 21:45:34 21:49:36 61° 101° (ESE) 21:53:38 437.425
SO-50 22 Feb 22:02:27 22:05:59 21° 110° (ESE) 22:09:30 436.795
JUGNU 22 Feb 22:07:14 22:09:50 13° 168° (SSE) 22:12:28 437.505
ESTCUBE 1 22 Feb 22:08:12 22:11:03 17° 67° (ENE) 22:13:55 437.505/2401.250
RS-15 22 Feb 22:10:52 22:17:20 15° 346° (NNW) 22:23:49 29.354- 29.394
UNISAT 6 22 Feb 22:36:10 22:40:54 89° 290° (WNW) 22:45:33 437.425
TIGRISAT 22 Feb 22:37:24 22:42:08 87° 98° (E) 22:46:48 435.000
VELOX 1 22 Feb 22:47:10 22:49:26 14° 66° (ENE) 22:51:40 145.980
O/OREOS (USA 219) 22 Feb 22:54:09 22:58:15 37° 104° (ESE) 23:02:23 437.305
QB50P2 22 Feb 22:58:14 22:59:44 12° 92° (E) 23:01:14 145.880/145.840
AIST 2D 22 Feb 22:58:30 23:00:51 17° 94° (E) 23:03:10 435.315
FO-29 22 Feb 22:59:13 23:06:50 66° 101° (E) 23:13:41 435.910
SPROUT 22 Feb 23:16:10 23:19:29 22° 70° (ENE) 23:22:48 437.525
YUBILEINY 22 Feb 23:23:09 23:31:02 40° 273° (W) 23:38:53 435.215
SO-50 22 Feb 23:41:53 23:46:13 36° 305° (NW) 23:50:30 436.795
ESTCUBE 1 22 Feb 23:43:17 23:47:30 39° 261° (W) 23:51:45 437.505/2401.250
JUGNU 22 Feb 23:54:15 23:58:06 18° 178° (S) 00:01:57 437.505
50 SAT 22 Feb 23:57:37 00:01:04 61° 76° (ENE) 00:04:32 437.505
DUCHIFAT 1 23 Feb 00:04:44 00:08:57 59° 101° (E) 00:13:08 145.980
EO-79 23 Feb 00:12:02 00:16:20 89° 101° (E) 00:20:36 145.935-145.965
VELOX 1 23 Feb 00:21:15 00:25:27 45° 260° (W) 00:29:40 145.980
DX 1 23 Feb 00:22:13 00:26:31 76° 76° (ENE) 00:30:51 434.975-435.025
POLYITAN 1 23 Feb 00:28:42 00:32:55 57° 285° (WNW) 00:37:07 437.675
NANOSAT C BR1 23 Feb 00:30:58 00:35:10 58° 285° (WNW) 00:39:21 145.865
AIST 2D 23 Feb 00:31:11 00:34:00 22° 288° (WNW) 00:36:48 435.315
QB50P2 23 Feb 00:31:37 00:35:44 48° 286° (WNW) 00:39:51 145.880/145.840
O/OREOS (USA 219) 23 Feb 00:34:48 00:37:47 17° 300° (WNW) 00:40:46 437.305
